Location: *
(32.8140°S, 174.6161°E)
Time: 09:13:04
(UTC+00:00)

CZ-4C R/B - Pass Details

Date: 10 December 2019
Orbit: 465 x 636 km, 98.0° (Epoch: 26 January)

Event Time Altitude Azimuth Distance (km) Brightness Sun altitude
Rises 14:29:47 0° 174° (S) 2,969 8.0 -25.6°
Reaches altitude 10° 14:32:03 10° 178° (S) 2,052 6.9 -25.3°
Enters shadow 14:35:59 52° 230° (SW) 800 4.0 -24.8°
